Lid_Strength_Index
4 4 4 5 5 5 5 5 5 4 5 5 5 5 5 5 5 4 4 3 3 2 1 1 1 0 1 1 1 1 1 2 4 3 1 2 4 4 3 4 4 5 5
4 4 5 5 5 5 5 5 4 5 5 5 5 6 6 6 5 5 4 4 4 3 2 1 1 1 1 1 1 1 1 1 2 4 4 4 4 4 4 5 5 6 6
5 5 5 5 5 5 5 5 5 5 5 5 5 6 6 5 5 5 5 5 4 4 2 2 1 1 1 1 1 1 1 1 2 3 4 4 4 3 5 6 7 7 7
5 6 6 6 5 5 5 5 5 5 5 5 4 4 4 4 4 4 5 4 5 5 3 2 1 1 1 1 1 1 1 2 2 3 4 5 5 5 6 8 9 8 8
6 6 6 5 5 5 5 5 5 5 5 5 5 4 5 5 4 4 5 4 4 5 5 3 1 1 1 1 1 1 1 2 2 3 5 6 6 7 8 8 9 8 8
6 7 6 6 6 6 6 6 6 6 5 5 5 5 5 5 5 5 5 5 5 5 5 4 2 2 1 2 2 2 1 2 3 3 4 6 6 6 7 8 10 10 11
7 7 7 7 7 7 7 7 7 7 5 5 5 5 5 5 6 6 6 5 5 5 5 5 3 1 1 1 1 2 2 4 3 2 3 4 6 6 7 9 8 9 8
7 7 7 8 8 8 8 8 8 7 6 6 5 4 4 4 6 6 6 6 5 5 5 5 4 3 1 1 1 1 1 1 1 1 2 3 4 4 5 7 6 7 8
8 8 8 8 8 8 9 8 8 7 7 7 6 5 5 4 6 6 6 5 6 6 5 5 4 4 5 6 2 2 2 1 3 5 4 6 7 7 6 5 8 9 11
8 8 7 8 9 9 9 8 7 7 7 6 6 5 6 6 6 7 7 6 6 5 4 6 7 7 6 6 2 2 3 2 2 3 5 6 7 6 8 5 6 8 10
8 8 8 8 8 8 7 7 7 8 8 7 7 6 6 7 6 8 8 8 8 8 7 7 5 7 7 5 5 2 2 2 3 2 4 5 5 5 5 4 4 5 7
8 8 8 8 8 8 8 7 8 9 9 9 8 8 8 8 8 9 10 10 11 9 7 4 2 6 7 8 5 6 8 4 2 3 5 6 5 6 4 4 3 4 4
8 8 8 8 8 8 8 9 10 9 10 10 9 11 11 9 10 11 12 12 12 11 8 7 8 9 9 8 7 9 6 3 2 4 5 6 6 5 4 5 4 5 4
9 8 8 9 9 9 10 10 10 10 10 10 12 12 11 12 11 12 12 13 13 10 9 9 9 7 6 5 7 6 2 2 4 4 5 5 5 6 6 5 6 7 8
8 9 9 9 10 11 11 10 10 10 10 11 12 12 13 14 13 14 15 14 13 9 7 6 5 4 5 4 4 3 2 3 4 4 5 6 6 6 6 6 6 7 8
8 9 9 10 11 11 12 12 11 11 11 12 13 13 12 13 14 15 14 14 13 12 6 5 6 5 5 4 4 4 4 4 4 5 5 6 6 7 7 6 6 7 8
8 9 10 11 11 12 12 12 13 11 11 12 13 13 12 14 14 13 14 14 13 8 6 5 5 5 5 4 4 4 4 4 4 5 5 5 6 6 7 7 7 8 8
8 10 10 11 11 12 12 12 12 12 13 13 12 12 12 13 14 13 13 10 6 7 6 5 6 4 4 4 4 4 4 4 5 5 5 6 6 6 6 7 8 8 8
9 9 10 10 11 11 11 12 12 12 13 13 12 12 12 13 13 12 12 9 8 7 7 6 5 5 4 3 4 4 4 5 5 5 5 6 6 6 7 7 8 11 11
8 10 10 9 11 11 11 12 13 13 13 14 14 13 13 13 12 11 10 10 9 8 7 7 6 6 5 4 4 5 5 5 5 5 5 6 6 6 6 7 8 9 9
8 8 11 9 10 11 12 12 13 13 13 14 14 13 15 14 13 12 12 10 11 10 8 6 6 7 5 5 5 6 5 5 5 6 6 6 6 6 6 7 8 8 8
8 8 9 9 9 10 11 11 12 13 13 13 14 13 15 12 12 12 12 11 11 10 8 6 6 7 6 5 5 6 6 7 7 6 6 6 7 7 7 8 8 8 9
7 8 8 9 9 10 10 10 12 12 13 13 13 12 13 13 12 12 12 12 11 11 10 9 7 7 7 6 5 5 6 7 7 6 7 7 8 8 8 8 9 10 11
7 7 8 8 9 10 10 10 11 13 13 12 13 12 12 12 11 11 12 12 12 12 11 11 10 9 7 7 6 6 5 6 6 6 7 8 9 10 9 9 10 10 10
7 7 8 8 9 10 10 10 11 11 13 13 12 12 12 11 11 11 11 12 12 12 12 12 12 11 11 9 8 8 13 13 7 10 7 8 8 9 9 10 10 11 12
7 7 7 8 9 10 11 10 11 11 11 12 12 12 12 12 10 10 10 11 12 12 12 12 12 12 12 12 14 15 15 14 10 12 7 8 9 10 10 11 11 12 12